This demonstration page uses our WeatherBlox Daily Observations layout. Learn more.

Left ArrowRight Arrow

Hourly Observations for September 16, 2017

Temp ( °F °C ) Dew Point ( °F °C ) Humidity (%) Winds ( mph kmh ) Pressure ( in mb ) Visibility ( mi km ) Precip ( " mm )
12:34 am 00:34 Clear with Nearby Thunderstorms 77 25 66 18.9 69 69 S 9 15 29.77 1008 10 16.0934 0 0.0254
12:44 am 00:44 Partly Cloudy with Light Thunderstorms 76 24.4 67 19.4 74 74 S 13 20 29.77 1008 9 14.48406 0 0.0254
12:54 am 00:54 Partly Cloudy with Light Thunderstorms 75 23.9 68 20 79 79 WSW 8 13 29.8 1009 8 12.87472 0.01 0.254
1:18 am 01:18 Partly Cloudy with Nearby Thunderstorms 73 22.8 67 19.4 81 81 Calm 29.77 1008 9 14.48406 0 0.0254
1:29 am 01:29 Mostly Clear 73 22.8 67 19.4 81 81 Calm 29.77 1008 9 14.48406 0 0.0254
1:54 am 01:54 Clear 73 22.8 67 19.4 81 81 ESE 8 13 29.79 1009 9 14.48406 0 0.0254
2:54 am 02:54 Clear 72 22.2 68 20 87 87 E 7 11 29.8 1009 8 12.87472 0 0
3:54 am 03:54 Clear 71 21.7 67 19.4 87 87 E 9 15 29.79 1009 8 12.87472 0 0
4:54 am 04:54 Clear 70 21.1 67 19.4 90 90 E 6 9 29.78 1009 7 11.26538 0 0
5:54 am 05:54 Clear 70 21.1 66 18.9 87 87 E 8 13 29.8 1009 7 11.26538 0 0
6:31 am 06:31 Mostly Clear with Nearby Thunderstorms 70 21.1 66 18.9 87 87 SE 7 11 29.8 1009 7 11.26538 0 0.0254
6:54 am 06:54 Mostly Cloudy with Nearby Thunderstorms 69 20.6 67 19.4 93 93 ESE 7 11 29.8 1009 7 11.26538 0.01 0.254
7:07 am 07:07 Mostly Cloudy with Thunderstorms 70 21.1 67 19.4 90 90 SE 7 11 29.83 1010 5 8.0467 0.02 0.508
7:54 am 07:54 Mostly Cloudy with Light Thunderstorms 70 21.1 67 19.4 90 90 SSE 8 13 29.83 1010 7 11.26538 0.16 4.064
8:36 am 08:36 Partly Cloudy with Nearby Thunderstorms 70 21.1 67 19.4 90 90 SSE 5 7 29.85 1011 6 9.65604 0 0.0254
8:54 am 08:54 Mostly Cloudy 70 21.1 67 19.4 90 90 SSE 12 19 29.85 1011 7 11.26538 0 0.0254
9:54 am 09:54 Sunny 71 21.7 67 19.4 87 87 S 3 6 29.86 1011 7 11.26538 0 0
10:26 am 10:26 Sunny with Nearby Thunderstorms 72 22.2 67 19.4 84 84 N 8 13 29.85 1011 7 11.26538 0 0
10:41 am 10:41 Partly Cloudy with Mist and Fog 72 22.2 68 20 87 87 NE 7 11 29.88 1012 6 9.65604 0 0
10:54 am 10:54 Mostly Cloudy with Haze 73 22.8 68 20 84 84 NNE 6 9 29.88 1012 6 9.65604 0 0
11:04 am 11:04 Cloudy with Mist and Fog 72 22.2 68 20 87 87 NNW 13 20 29.88 1012 6 9.65604 0 0
11:13 am 11:13 Cloudy 68 20 65 18.3 90 90 N 16 26 29.91 1013 7 11.26538 0 0
11:54 am 11:54 Cloudy 64 17.8 61 16.1 90 90 NNW 20 31 29.91 1013 9 14.48406 0 0
12:54 pm 12:54 Cloudy with Mist and Fog 62 16.7 59 15 90 90 N 15 24 29.93 1014 4 6.43736 0 0
1:54 pm 13:54 Cloudy with Mist and Fog 62 16.7 59 15 90 90 N 13 20 29.93 1014 6 9.65604 0 0
2:54 pm 14:54 Cloudy 63 17.2 58 14.4 84 84 N 13 20 29.93 1014 10 16.0934 0 0
3:34 pm 15:34 Cloudy 65 18.3 59 15 81 81 NNE 12 19 29.91 1013 10 16.0934 0 0
3:54 pm 15:54 Cloudy 64 17.8 58 14.4 81 81 N 12 19 29.95 1014 10 16.0934 0 0
4:54 pm 16:54 Cloudy 65 18.3 58 14.4 78 78 N 12 19 29.97 1015 10 16.0934 0 0
5:54 pm 17:54 Cloudy 65 18.3 56 13.3 73 73 N 18 30 29.96 1015 10 16.0934 0 0
6:03 pm 18:03 Cloudy 64 17.8 56 13.3 75 75 N 16 26 29.97 1015 10 16.0934 0 0
6:54 pm 18:54 Cloudy 63 17.2 56 13.3 78 78 N 13 20 29.99 1016 10 16.0934 0 0
7:54 pm 19:54 Cloudy 61 16.1 56 13.3 84 84 N 12 19 30.01 1016 10 16.0934 0 0.0254
8:54 pm 20:54 Cloudy 60 15.6 54 12.2 80 80 N 16 26 30.04 1017 10 16.0934 0 0
9:18 pm 21:18 Cloudy 59 15 55 12.8 87 87 N 12 19 30.06 1018 10 16.0934 0 0
9:54 pm 21:54 Cloudy 59 15 54 12.2 83 83 N 12 19 30.05 1018 10 16.0934 0 0
10:54 pm 22:54 Cloudy 59 15 54 12.2 83 83 NE 8 13 30.08 1019 10 16.0934 0 0
11:54 pm 23:54 Cloudy 59 15 54 12.2 83 83 N 9 15 30.1 1019 10 16.0934 0 0

Powered by AerisWeather